User: anonymous
Location: Plum
(40.5000°N, 79.7500°W)
Time: 13:54:38
(UTC-04:00)
Language:

MOZ.5/SAFIR/RUBIN 5/SL-8 - Orbit

View from above orbital plane
View from above orbital plane
View from above satellite
View from above satellite

Ground track
Ground track

The orbit data is extracted from the following two-line orbital elements,

1 28898U 05043G   14204.10390587  .00000081  00000-0  26122-4 0  8738
2 28898 097.8368 031.6939 0018646 282.8295 224.9732 14.59497848465160
Epoch (UTC): 23 July 2014 02:29:37
Eccentricity: 0.0018646
inclination: 97.8368°
perigee height: 681 km
apogee height: 708 km
right ascension of ascending node: 31.6939°
argument of perigee: 282.8295°
revolutions per day: 14.59497848
mean anomaly at epoch: 224.9732°
orbit number at epoch: 46516

The dashed part of the orbit path shows where the satellite is in the earth's shadow,  

DLR